Regional Weather Roundup
Issued by NWS

Home | Current Version | Previous Version | Graphics & Text | Print | Product List | Glossary Off
Versions: 1 2 3 4 5 6 7 8 9 10 11 12 13 14 15 16 17 18 19 20 21 22 23 24 25 26 27 28 29 30 31 32 33 34 35 36 37 38 39 40 41 42 43 44 45 46 47 48 49 50

000
ASUS43 KDTX 222110
RWRMI
MICHIGAN HOURLY REGIONAL WEATHER ROUNDUP
NATIONAL WEATHER SERVICE DETROIT/PONTIAC MI
500 PM EDT WED MAR 22 2017

NOTE: "FAIR" INDICATES FEW OR NO CLOUDS BELOW 12,000 FEET WITH NO
SIGNIFICANT WEATHER AND/OR OBSTRUCTION TO VISIBILITY.

MIZ047>049-052>055-059>063-066>070-074>076-081>083-222200-
SOUTHEAST LOWER MICHIGAN

CITY           SKY/WX    TMP DP  RH WIND       PRES   REMARKS
ADRIAN         SUNNY     35  13  40 N5        30.54S WCI  31
ALMA           SUNNY     33   4  30 N6        30.55F WCI  27
ANN ARBOR      SUNNY     37   7  28 NW8       30.52S WCI  31
BAD AXE        SUNNY     28   2  33 N3        30.57F
CARO           SUNNY     30  10  43 NE3       30.57S
DETROIT CITY   SUNNY     36   9  32 CALM      30.55S
DETROIT        MOSUNNY   38   9  30 N3        30.55S
FLINT          SUNNY     34   8  33 N5        30.55  WCI  30
GROSSE ILE     SUNNY     35  13  41 E6        30.54S WCI  29
HILLSDALE      SUNNY     34  10  37 NE3       30.50S
HOWELL         SUNNY     34   6  32 NW7       30.53S WCI  27

CITY           SKY/WX    TMP DP  RH WIND       PRES   REMARKS
JACKSON        SUNNY     35   7  31 E3        30.52F
LAMBERTVILLE   SUNNY     36  17  46 E8        30.54S WCI  29
LANSING        SUNNY     35   6  29 VRB5      30.55F WCI  31
LAPEER         FAIR      32   7  35 NW3       30.55R
MASON          SUNNY     34  12  41 CALM      30.53F
MONROE         SUNNY     32  18  55 S7        30.55R WCI  26
MT. CLEMENS    MOSUNNY   33  11  41 N8        30.54S WCI  26
PONTIAC        MOSUNNY   35   7  31 VRB6      30.51S WCI  30
PORT HOPE        N/A     25  10  53 NE5       30.57S WCI  19
PORT HURON     SUNNY     28  12  50 NE10      30.58R WCI  19
TRI CITIES     SUNNY     31   8  38 SE8       30.57F WCI  23
MIDLAND        FAIR      35   6  30 S7        30.54F WCI  29
TROY           SUNNY     35   6  30 CALM      30.55F
SAGINAW HB     SUNNY     32  -6  19 E5        30.57F WCI  27
$$
MIZ043>046-050>051-056>058-064>065-071>073-077>080-222200-
SOUTHWEST LOWER MICHIGAN

CITY           SKY/WX    TMP DP  RH WIND       PRES   REMARKS
BATTLE CREEK   SUNNY     36   8  31 NW6       30.53S WCI  31
BENTON HARBOR  SUNNY     33  16  49 NW7       30.55S WCI  27
BIG RAPIDS     SUNNY     34   1  24 NE3       30.50F
COLDWATER      SUNNY     36   9  33 N5        30.52S WCI  32
FREMONT        FAIR      37   6  28 W3        30.52F
HOLLAND        SUNNY     35  19  52 W10       30.54F WCI  27
GRAND RAPIDS   MOSUNNY   36  11  35 VRB6      30.53F WCI  31
IONIA          FAIR      33   6  31 CALM      30.53F
KALAMAZOO      SUNNY     37   8  30 VRB5      30.53S WCI  33
LUDINGTON      SUNNY     32  16  52 NW8       30.55F WCI  25
MARSHALL       SUNNY     36   9  32 E5        30.52S WCI  32
MOUNT PLEASANT SUNNY     33   5  29 CALM      30.53F
MUSKEGON       MOSUNNY   33  14  45 NW10      30.55F WCI  25
SOUTH HAVEN    SUNNY     32  17  54 NW8       30.55S WCI  25
$$
MIZ016>042-222200-
NORTHERN LOWER MICHIGAN

CITY           SKY/WX    TMP DP  RH WIND       PRES   REMARKS
ALPENA         SUNNY     33   1  25 VRB6      30.54F WCI  28
BEAVER ISLAND  SUNNY     29  11  47 W6        30.56F WCI  23
BELLAIRE       SUNNY     29  10  45 W6        30.56F WCI  23
CADILLAC       SUNNY     34  -1  23 E3        30.47F
CHARLEVOIX     SUNNY     26  13  56 W8        30.60F WCI  18
FRANKFORT      SUNNY     29  14  54 N5        30.56F WCI  23
GAYLORD        SUNNY     30   0  27 VRB5      30.49F WCI  25
GRAYLING       SUNNY     32  -2  23 N5        30.50F WCI  27
HARBOR SPRINGS SUNNY     27  13  56 W9        30.55F WCI  17
HOUGHTON LAKE  SUNNY     32   0  25 VRB6      30.51F WCI  26
MANISTEE       SUNNY     30  17  58 NW10      30.56F WCI  21
OSCODA         SUNNY     28  11  48 E9        30.56F WCI  19
PELLSTON       SUNNY     29   3  33 MISG      30.55F
ROGERS CITY    SUNNY     28   6  38 N9        30.55F WCI  20
TRAVERSE CITY  MOSUNNY   30  10  43 NE9       30.55F WCI  22
$$
MIZ007>008-015-222200-
EASTERN UPPER MICHIGAN

CITY           SKY/WX    TMP DP  RH WIND       PRES   REMARKS
KINROSS        SUNNY     25  12  58 N13       30.52F WCI  14
MACKINAC ISLAN SUNNY     26  12  56 SW8       30.53F WCI  17
NEWBERRY       SUNNY     31   8  38 CALM      30.51S
S. S. MARIE    SUNNY     26   6  42 NW12      30.54F WCI  16
MUNISING         N/A     27  16  63 NE12      30.53F WCI  17
$$
MIZ004>006-011>014-085-222200-
CENTRAL UPPER MICHIGAN

CITY           SKY/WX    TMP DP  RH WIND       PRES   REMARKS
MANISTIQUE     SUNNY     27  18  69 S12       30.53F WCI  16
ESCANABA       SUNNY     28  14  55 S12G17    30.56F WCI  18
MENOMINEE        N/A    N/A N/A N/A MISG        N/A
SAWYER-GWINN   SUNNY     34   7  32 S3        30.48F
$$
MIZ001>003-009>011-084-222200-
WESTERN UPPER MICHIGAN

CITY           SKY/WX    TMP DP  RH WIND       PRES   REMARKS
IRON MOUNTAIN  SUNNY     35   2  24 W8        30.48F WCI  29
HOUGHTON       SUNNY     29  11  47 NW7       30.48F WCI  22
COPPER HARBOR    N/A     26  11  52 N3        30.53F
IRONWOOD       CLOUDY    36   3  25 S10       30.44F WCI  28
$$

ABBREVIATIONS USED IN REMARKS
   TC - TEMPERATURE IN CELSIUS
  WCI - WIND CHILL INDEX
   HX - HEAT INDEX
  VSB - VISIBILITY





USA.gov is the U.S. government's official web portal to all federal, state and local government web resources and services.